COSMOS 1275 DEB

Satellite information

Favourite Embed

Satellite Type and Status

DEBRISIN ORBIT

Key statistics

Satellite COSMOS 1275 DEB at a glance.

Uptime

16103

Days in orbit

Revolutions

≈ 14.3

Per day

Orbit

LEO

Low Earth Orbit

Inclination

82.9

Latest

Satellite identification and parameters

Extended collection of information and parameters for COSMOS 1275 DEB.

Object identification

Identified? True

Debris? True

Object name: COSMOS 1275 DEB

International designator: 1981-053LK

Object number (NORAD): 17640

Object ID (CCSDS): 17640

Country: COMMONWEALTH OF INDEPENDENT STATES (CIS)

Current information (Y/N): Y

RCS size: SMALL

Orbital parameters

Period: 100.568 minutes

Inclination: 82.9135 deg

SMA: 7163.627 km

Apoapsis: 804.549 km

Periapsis: 766.434 km

RAAN: 266.5888 deg

Eccentricy: 0.0026603

Argument of periapsis: 161.5478 deg

Mean anomaly: 198.6681 deg

Mean motion: 14.31869186 rev/day

Mean motion (dot): 0.00002828 rev/day2

B* drag term: 0.0010468 1/REarth

Two-line elements (TLE)

Creation date: July 5, 2025, 5:45 p.m.

Reference frame: TEME

Reference center: EARTH

Epoch: July 5, 2025, 5:01 a.m. UTC

TLE line 0: 0 COSMOS 1275 DEB

TLE line 1: 1 17640U 81053LK 25186.20925127 .00002828 00000-0 10468-2 0 9996

TLE line 2: 2 17640 82.9135 266.5888 0026603 161.5478 198.6681 14.31869186761460

Live tracking on map

Real-time ground track for satellite COSMOS 1275 DEB.

In-orbit conjunctions

A list of the most updated potential collisions computed for object COSMOS 1275 DEB.

Target Orbit TCA Probability of collision Miss distance Type
FASAT B SSO 2025-06-01 11:22:20 0.0001269982 182.0 (m) PAYLOAD
CZ-6A DEB LEO 2024-11-11 23:20:48 0.0001923442 169.0 (m) DEBRIS
SL-16 DEB LEO 2024-09-06 17:43:53 0.0002827841 137.0 (m) DEBRIS
FENGYUN 1C DEB SSO 2024-07-22 11:55:18 0.0001061096 77.0 (m) DEBRIS
FENGYUN 1C DEB SSO 2024-06-05 01:46:02 0.0001356469 86.0 (m) DEBRIS

Associated space launch

Navigation satellite providing location information for the Tsiklon-B navigation system

COSMOS 1275 DEB was lifted into orbit during the mission ‘Kosmos-3M | Parus 27’, on board a Kosmos-3M space rocket.

The launch took place on June 4, 1981, 3:41 p.m. from 132/2.

For more information about the launch, click the button.

Launch to space Kosmos-3M | Parus 27
Kosmos-3M | Parus 27

Agency: N/A

Status: Launch Successful

Launch date: June 4, 1981, 3:41 p.m. UTC

Rocket: Kosmos-3M

Launch pad: 132/2

Location: Plesetsk Cosmodrome, Russian Federation

...

Latest news about this satellite

There are no fresh news available about this satellite. Check back as we update our databases every day.


Newsletter sign-up

Weekly statistics, charts and insights to help you stay on top of the space industry.